Sevilla, Spain

12:35 AM CEST on April 30, 2017 (GMT +0200)
San Pablo

Weather History for LEZL - October, 2013

Change the Weather History Date:

Tuesday, October 1, 2013

  Actual Average Record
Temperature  
Mean Temperature 74 °F -  
Max Temperature 80 °F 76 °F 93 °F (2004)
Min Temperature 69 °F 57 °F 53 °F (1998)
Cooling Degree Days 10    
Growing Degree Days 24 (Base 50)    
Moisture  
Dew Point 67 °F    
Average Humidity 80    
Maximum Humidity 100    
Minimum Humidity 54    
Precipitation  
Precipitation 0.00 in - - ()
Sea Level Pressure  
Sea Level Pressure 29.92 in    
Wind  
Wind Speed 6 mph ()    
Max Wind Speed 12 mph    
Max Gust Speed -    
Visibility 6.1 miles    
Events      
Averages and records for this station are not official NWS values.
T = Trace of Precipitation, MM = Missing Value Source: Averaged Metar Reports

Daily Weather History Graph

Daily Weather History Graph

Search for Another Location

Airport or City:

Trip Planner

Search our weather history database for the weather conditions in past years. The results will help you decide how hot, cold, wet, or windy it might be!

Date:

Astronomy

Oct. 01, 2013 Rise Set
Actual Time 8:19 AM CEST 8:06 PM CEST
Civil Twilight 7:53 AM CEST 8:32 PM CEST
Nautical Twilight 7:22 AM CEST 9:02 PM CEST
Astronomical Twilight 6:52 AM CEST 9:33 PM CEST
Moon 4:43 AM CEST (10/1) 5:59 PM CEST (10/1)
Length of Visible Light 12h 39m
Length of Day
11h 47m
Waning Crescent, 14% of the Moon is Illuminated
Oct 1
Waning Crescent
Oct 5
New
Oct 12
First Quarter
Oct 19
Full
Oct 27
Last Quarter

Hourly Weather History & Observations

Time (CEST) Temp. Heat Index Dew Point Humidity Pressure Visibility Wind Dir Wind Speed Gust Speed Precip Events Conditions
12:00 AM 71.6 °F - 71.6 °F 100% 29.92 in 4.3 mi SW 8.1 mph - N/A   Light Drizzle
12:19 AM 71.6 °F - 71.6 °F 100% 29.92 in 6.2 mi SSW 9.2 mph - N/A   Scattered Clouds
12:30 AM 71.6 °F - 71.6 °F 100% 29.92 in 6.2 mi SW 9.2 mph - N/A   Mostly Cloudy
1:00 AM 71.6 °F - 71.6 °F 100% 29.92 in 6.2 mi SW 9.2 mph - N/A   Mostly Cloudy
4:30 AM 69.8 °F - 69.8 °F 100% 29.92 in 6.2 mi Variable 2.3 mph - N/A   Scattered Clouds
5:00 AM 69.8 °F - 69.8 °F 100% 29.92 in 6.2 mi South 3.5 mph - N/A   Mostly Cloudy
5:30 AM 69.8 °F - 69.8 °F 100% 29.92 in 6.2 mi Variable 2.3 mph - N/A   Mostly Cloudy
6:00 AM 69.8 °F - 69.8 °F 100% 29.92 in 6.2 mi SSW 3.5 mph - N/A   Mostly Cloudy
6:30 AM 69.8 °F - 69.8 °F 100% 29.92 in 6.2 mi SW 3.5 mph - N/A   Mostly Cloudy
7:00 AM 69.8 °F - 69.8 °F 100% 29.92 in 6.2 mi SSW 3.5 mph - N/A   Mostly Cloudy
7:30 AM 69.8 °F - 69.8 °F 100% 29.92 in 6.2 mi WSW 2.3 mph - N/A   Mostly Cloudy
8:00 AM 69.8 °F - 69.8 °F 100% 29.92 in 6.2 mi West 5.8 mph - N/A   Overcast
8:30 AM 69.8 °F - 68.0 °F 94% 29.92 in 6.2 mi West 4.6 mph - N/A   Overcast
9:00 AM 69.8 °F - 68.0 °F 94% 29.92 in 6.2 mi WSW 3.5 mph - N/A   Overcast
9:30 AM 69.8 °F - 68.0 °F 94% 29.92 in 6.2 mi SW 2.3 mph - N/A   Overcast
10:00 AM 71.6 °F - 68.0 °F 88% 29.95 in 6.2 mi Variable 1.2 mph - N/A   Overcast
10:30 AM 71.6 °F - 68.0 °F 88% 29.95 in 6.2 mi Variable 1.2 mph - N/A   Mostly Cloudy
11:00 AM 73.4 °F - 68.0 °F 83% 29.95 in 6.2 mi Variable 1.2 mph - N/A   Mostly Cloudy
11:30 AM 73.4 °F - 68.0 °F 83% 29.95 in 6.2 mi SW 5.8 mph - N/A   Mostly Cloudy
12:00 PM 75.2 °F - 68.0 °F 78% 29.95 in 6.2 mi SW 5.8 mph - N/A   Mostly Cloudy
12:30 PM 77.0 °F - 66.2 °F 69% 29.95 in 6.2 mi WSW 5.8 mph - N/A   Scattered Clouds
1:00 PM 77.0 °F - 66.2 °F 69% 29.95 in 6.2 mi SW 6.9 mph - N/A   Mostly Cloudy
1:30 PM 75.2 °F - 66.2 °F 73% 29.95 in 6.2 mi WSW 9.2 mph - N/A   Mostly Cloudy
2:00 PM 77.0 °F - 66.2 °F 69% 29.95 in 6.2 mi WSW 4.6 mph - N/A   Mostly Cloudy
2:30 PM 78.8 °F - 64.4 °F 61% 29.92 in 6.2 mi SW 8.1 mph - N/A   Scattered Clouds
3:00 PM 80.6 °F 81.8 °F 62.6 °F 54% 29.92 in 6.2 mi SW 9.2 mph - N/A   Scattered Clouds
3:30 PM 80.6 °F 82.3 °F 64.4 °F 58% 29.92 in 6.2 mi SW 11.5 mph - N/A   Scattered Clouds
4:00 PM 80.6 °F 82.3 °F 64.4 °F 58% 29.92 in 6.2 mi WSW 8.1 mph - N/A   Scattered Clouds
4:30 PM 78.8 °F - 64.4 °F 61% 29.89 in 6.2 mi SW 8.1 mph - N/A   Scattered Clouds
5:00 PM 80.6 °F 82.7 °F 66.2 °F 61% 29.89 in 6.2 mi SSW 9.2 mph - N/A   Scattered Clouds
5:30 PM 80.6 °F 82.3 °F 64.4 °F 58% 29.89 in 6.2 mi SW 9.2 mph - N/A   Scattered Clouds
6:00 PM 80.6 °F 82.3 °F 64.4 °F 58% 29.89 in 6.2 mi SW 9.2 mph - N/A   Scattered Clouds
6:30 PM 78.8 °F - 64.4 °F 61% 29.89 in 6.2 mi SW 10.4 mph - N/A   Partly Cloudy
7:00 PM 78.8 °F - 64.4 °F 61% 29.89 in 6.2 mi SW 9.2 mph - N/A   Partly Cloudy
7:30 PM 77.0 °F - 64.4 °F 65% 29.89 in 6.2 mi SW 8.1 mph - N/A   Partly Cloudy
8:00 PM 75.2 °F - 64.4 °F 69% 29.89 in - SW 9.2 mph - N/A   Clear
8:30 PM 75.2 °F - 64.4 °F 69% 29.89 in - SSW 9.2 mph - N/A   Clear
9:00 PM 73.4 °F - 64.4 °F 73% 29.89 in - SW 6.9 mph - N/A   Clear
9:30 PM 73.4 °F - 64.4 °F 73% 29.92 in - SW 8.1 mph - N/A   Clear
10:00 PM 71.6 °F - 64.4 °F 78% 29.92 in 6.2 mi SW 8.1 mph - N/A   Partly Cloudy
10:30 PM 71.6 °F - 64.4 °F 78% 29.92 in 6.2 mi SW 4.6 mph - N/A   Partly Cloudy
11:00 PM 71.6 °F - 64.4 °F 78% 29.92 in - SW 3.5 mph - N/A   Clear
11:30 PM 69.8 °F - 64.4 °F 83% 29.92 in - SW 2.3 mph - N/A   Clear